Regional Weather Roundup
Issued by NWS Sioux Falls, SD

Home | Current Version | Previous Version | Text Only | Print | Product List | Glossary On
Versions: 1 2 3 4 5 6 7 8 9 10 11 12 13 14 15 16 17 18 19 20 21 22 23 24 25 26 27 28 29 30 31 32 33 34 35 36 37 38 39 40 41 42 43 44 45 46 47 48 49 50
000
ASUS43 KFSD 300502
RWRFSD

WEATHER ROUNDUP FOR SE SOUTH DAKOTA/SW MINNESOTA/NW IOWA
NATIONAL WEATHER SERVICE SIOUX FALLS SD
1200 AM CDT FRI SEP 30 2016

NOTE: "FAIR" INDICATES FEW OR NO CLOUDS BELOW 12,000 FEET WITH NO
SIGNIFICANT WEATHER AND OR OBSTRUCTIONS TO VISIBILITY.


SDZ038>040-050-052>070-300600-
SOUTHEAST SOUTH DAKOTA

CITY           SKY/WX    TMP DP  RH WIND       PRES   REMARKS
CHAMBERLAIN    CLEAR     53  48  83 SE8       30.31S
HURON          CLEAR     49  45  86 SE7       30.33R
MADISON        FAIR      45  45 100 SE5       30.36F
MITCHELL       CLEAR     50  46  86 S6        30.34S
SIOUX FALLS    CLEAR     49  45  86 NE5       30.36S
WINNER         FAIR      53  45  74 SE12      30.29F
YANKTON        CLEAR     52  46  82 CALM      30.33S
$$

MNZ071-072-080-081-089-090-097-098-300600-
SOUTHWEST MINNESOTA

CITY           SKY/WX    TMP DP  RH WIND       PRES   REMARKS
FAIRMONT       CLEAR     48  45  89 CALM      30.38S
JACKSON        CLEAR     46  43  87 CALM      30.39R
LUVERNE        CLEAR     46  43  87 CALM      30.38S
MARSHALL       CLEAR     46  42  86 CALM      30.39S
MONTEVIDEO     CLEAR     48  46  93 S3        30.40S
PIPESTONE      CLEAR     50  46  87 E5        30.37F
REDWOOD FALLS  CLEAR     53  47  79 E6        30.38F
TRACY          CLEAR     52  48  85 S3        30.38F
WINDOM         CLEAR     48  45  87 E6        30.38F
WORTHINGTON    CLEAR     48  46  93 E7        30.38F
$$

IAZ001>003-012>014-020>022-031-032-NEZ013-014-SDZ071-300600-
NORTHWEST IOWA

CITY           SKY/WX    TMP DP  RH WIND       PRES   REMARKS
CHEROKEE       PTCLDY    47  47 100 CALM      30.37S
DENISON        CLEAR     46  45  93 CALM      30.33F
ESTHERVILLE    CLEAR     46  45  96 NE7       30.37F
LE MARS        CLEAR     48  46  93 CALM      30.37S
SHELDON        CLEAR     46  46 100 E5        30.36S
SIOUX CITY     CLEAR     48  45  89 SE3       30.36R
SPENCER        CLEAR     43  42  97 NE3       30.37S
STORM LAKE     CLEAR     55  46  71 E8        30.37S
$$

ABBREVIATIONS USED IN REMARKS
   TC - TEMPERATURE IN CELSIUS
  WCI - WIND CHILL INDEX
   HX - HEAT INDEX
  VSB - VISIBILITY





USA.gov is the U.S. government's official web portal to all federal, state and local government web resources and services.